Location: Voyageurs National Park
(48.5020°N, 92.9292°W)
Time: 12:19:14
(UTC-05:00)

Daily predictions for brighter satellites

Satellite Brightness Start Highest point End
(mag) Time Altitude Azimuth Time Altitude Azimuth Time Altitude Azimuth
Okean 3 Rocket 3.6 19:25:30 10° N 19:30:04 77° E 19:34:37 10° SSE
SAR-Lupe-1 4.0 19:26:39 10° SSE 19:30:12 75° ENE 19:33:47 10° N
Cosmos 1624 Rocket 4.2 19:25:19 10° NNW 19:30:34 82° WSW 19:35:46 10° SSE
Aureole 2 Rocket 3.5 19:27:20 10° S 19:31:22 36° ESE 19:35:18 10° NE
Cosmos 1766 3.8 19:27:57 10° SSE 19:31:37 38° E 19:35:22 10° NNE
ATLAS 5 CENTAUR R/B 3.1 19:30:27 10° SSE 19:34:00 21° ESE 19:37:45 10° ENE
Resurs 01 Rocket 2.0 19:30:41 10° SE 19:34:56 46° ENE 19:39:13 10° N
HJ-1C 3.9 19:32:20 10° SE 19:35:30 39° ENE 19:38:41 10° N
Resurs 1-3 4.2 19:32:30 10° SE 19:36:33 38° ENE 19:40:38 10° N
Cosmos 1980 3.9 19:34:14 10° SSW 19:39:53 79° WNW 19:45:36 10° NNE
USA 215 3.8 19:33:54 10° ENE 19:39:54 37° SE 19:45:50 10° SSW
Meteor 1-29 4.1 19:40:16 10° NE 19:43:10 24° E 19:46:03 10° SSE
SL-16 R/B 2.4 19:40:08 10° S 19:45:38 53° ESE 19:51:11 10° NE
CZ-2D R/B 4.4 19:43:51 10° ESE 19:47:06 26° ENE 19:50:21 10° N
Cosmos 292 Rocket 4.0 19:46:37 10° SSW 19:51:25 75° WNW 19:56:17 10° NNE
Cosmos 1953 3.0 19:49:08 10° SSE 19:52:40 31° E 19:56:13 10° NNE
Nadezhda 4 Rocket 4.4 19:48:23 10° N 19:54:23 43° ENE 20:00:17 10° SE
Spot 1 4.2 19:52:08 10° SSE 19:56:53 89° ENE 20:01:22 10° NNW
Cosmos 1072 Rocket 4.4 19:50:52 10° S 19:56:55 69° E 20:03:00 10° NNE
ERS-1 Rocket 4.5 19:54:54 13° E 19:57:34 19° ENE 20:01:00 10° NNE
BREEZE-M DEB (TANK) 4.3 19:39:28 10° W 19:58:08 75° S 20:02:29 15° E
SeaSat 1 3.8 19:55:14 10° ENE 19:58:21 17° ESE 20:01:26 10° SE
Helios 1A 2.9 19:55:04 10° SSE 19:59:14 72° ENE 20:03:26 10° N
ATLAS 3B R/B 3.7 19:52:22 10° WSW 19:59:45 52° NW 20:06:52 10° NE
Cosmos 1452 Rocket 3.5 19:54:38 10° NNW 19:59:56 75° ENE 20:05:11 10° SSE
COSMO-SKYMED 1 3.7 19:57:01 10° N 20:01:13 48° WNW 20:05:24 10° SW
Cosmos 1378 3.6 19:58:18 10° NNW 20:02:02 64° W 20:05:43 10° S
Cosmos 1805 3.7 19:59:51 10° SSE 20:03:31 39° E 20:07:14 10° NNE
Meteor 1-28 Rocket 3.2 20:00:59 10° NNE 20:04:44 84° WNW 20:08:27 10° SSW
H-2A R/B 3.4 20:01:16 10° SE 20:04:53 37° ENE 20:08:30 10° N
Cosmos 2219 Rocket 3.6 20:00:04 10° WSW 20:05:20 40° NW 20:10:41 10° NNE
METEOR-M 4.2 20:00:30 10° SSE 20:05:52 83° WSW 20:11:16 10° NNW
Cosmos 1544 4.0 20:03:11 10° SSE 20:06:26 28° E 20:09:42 10° NNE
Cosmos 2278 Rocket 4.4 20:01:51 10° NW 20:06:30 27° WSW 20:11:07 10° SSW
CZ-4B DEB 3.0 20:06:23 10° SSE 20:09:33 48° ENE 20:12:44 10° N
ALOS 2.3 20:06:24 10° SSE 20:10:59 59° ENE 20:15:36 10° N
Meteor 1-22 Rocket 4.2 20:05:54 10° SSW 20:11:15 78° WNW 20:16:34 10° N
FENGYUN 3A 3.6 20:09:24 10° SSE 20:14:43 65° ENE 20:20:04 10° N
NOSS 3-2 (A) 3.5 20:10:34 10° SSW 20:16:39 69° SE 20:23:22 10° NE
Meteor 2-12 Rocket 4.5 20:11:16 10° S 20:17:17 58° E 20:23:19 10° NNE
Cosmos 1766 Rocket 3.8 20:17:53 10° NNW 20:22:17 72° W 20:26:37 10° S
USA 238 DEB 4.2 20:15:36 10° SW 20:22:35 63° NW 20:29:36 10° NE
USA 238 4.2 20:15:42 10° SW 20:22:42 64° NW 20:29:43 10° NE
Cosmos 1420 Rocket 4.0 20:17:42 10° NNW 20:23:00 68° ENE 20:27:35 14° SSE
CZ-4C R/B 3.0 20:17:41 10° WSW 20:23:05 55° NW 20:29:17 10° NE
Cosmos 1470 3.6 20:24:31 27° ESE 20:25:03 28° E 20:28:24 10° NNE
Cosmos 2369 Rocket 2.6 20:20:25 10° NNW 20:25:49 43° NE 20:28:54 23° ESE
Cosmos 2034 Rocket 4.0 20:25:09 10° S 20:31:25 85° E 20:37:48 10° N
H-2A R/B 3.8 20:31:47 17° ENE 20:31:52 17° ENE 20:34:41 10° NNE
Cosmos 1603 3.9 20:27:22 10° S 20:32:52 49° ESE 20:38:24 10° NE
Cosmos 1943 Rocket 3.3 20:28:31 10° NNW 20:33:16 27° NE 20:35:14 22° ENE
Cosmos 1464 Rocket 4.3 20:27:44 10° SSW 20:33:58 72° W 20:40:11 10° N
Cosmos 1758 3.3 20:30:03 10° S 20:34:09 90° ESE 20:38:17 10° N
USA 186 2.2 20:35:05 30° NNE 20:35:05 30° NNE 20:36:32 10° N
Cosmos 1733 4.2 20:39:32 29° ENE 20:39:32 29° ENE 20:42:12 10° NNE
Helios 1B rocket 2.8 20:36:08 10° N 20:40:14 65° WNW 20:44:18 10° SSW
TELKOM 3 3.8 20:37:59 10° W 20:40:28 42° SSW 20:40:28 42° SSW
Cosmos 1269 Rocket 4.1 20:36:41 10° S 20:41:45 49° ESE 20:46:51 10° NNE
ASTEX 1 3.3 20:37:59 10° N 20:42:56 71° E 20:47:48 10° S
Cosmos 2333 Rocket 4.2 20:40:05 10° WSW 20:45:06 30° NW 20:50:08 10° NNE
ERBS 3.8 20:42:18 10° NW 20:45:22 27° NNE 20:46:05 25° NE
Cosmos 1048 Rocket 4.2 20:41:02 10° S 20:46:05 46° ESE 20:51:05 10° NNE
CZ-4B DEB 4.5 20:45:08 28° SSE 20:46:58 89° W 20:50:36 10° NNW
Cosmos-2242 3.2 20:43:14 10° SSW 20:47:35 76° W 20:52:01 10° N
Cosmos 1674 2.6 20:46:16 10° N 20:50:10 87° E 20:51:57 31° S
H-2A R/B 4.2 20:53:25 11° NE 20:53:25 11° NE 20:54:10 10° NE
CENTAUR R/B 3.2 20:48:46 10° S 20:59:44 11° NE 21:00:00 10° NE
NOSS 3-2 (C) 3.5 20:48:09 10° SW 20:54:21 89° NW 21:01:12 10° NE
Envisat 3.3 20:53:17 38° ESE 20:54:28 44° ENE 20:59:18 10° N
SJ-11-01 4.3 20:54:46 41° SE 20:56:05 57° ENE 21:00:42 10° N
Cosmos 1500 Rocket 3.5 20:52:04 10° N 20:56:30 86° W 20:59:06 25° S
Cosmos 1842 Rocket 3.4 20:55:05 16° S 20:58:30 70° E 21:02:51 10° NNE
Cosmos 1939 Rocket 3.3 20:59:42 44° ENE 20:59:42 44° ENE 21:03:16 10° N
Cosmos 1627 Rocket 4.5 20:54:06 10° N 21:00:15 62° ENE 21:03:14 31° SSE
Cosmos 2151 2.9 20:56:14 10° N 21:00:25 57° ENE 21:00:39 56° E
Cosmos 1328 3.7 21:00:09 10° N 21:04:00 62° ENE 21:04:00 62° ENE
Cosmos 2237 Rocket 4.5 21:06:26 10° W 21:10:57 24° NW 21:15:29 10° N
Resurs 01 Rocket 4.1 21:08:13 10° SW 21:11:39 22° W 21:15:05 10° NW
Cosmos 2058 3.4 21:09:29 10° N 21:12:41 44° NE 21:12:41 44° NE
SPOT 5 3.7 21:15:27 30° NE 21:15:27 30° NE 21:18:22 10° N
SL-14 R/B 4.1 21:12:31 10° N 21:15:25 40° NNE 21:15:25 40° NNE
ATLAS 5 CENTAUR R/B 2.1 21:13:11 10° SW 21:18:04 71° NW 21:23:26 10° NE
USA 215 3.3 21:17:38 15° NE 21:23:18 82° NNW 21:29:51 10° WSW
SL-16 R/B 3.9 21:24:57 10° WSW 21:30:01 32° NW 21:35:08 10° NNE
Cosmos 1110 Rocket 3.8 21:29:12 10° NNW 21:34:32 86° ENE 21:34:54 78° SE
ERS-1 Rocket 3.0 21:34:54 58° SSW 21:35:48 74° WSW 21:40:52 10° NNW
SeaSat 1 2.4 21:31:27 10° NNE 21:36:26 83° WNW 21:41:22 10° SW
GP-B 3.8 21:33:03 10° N 21:37:23 52° W 21:38:50 36° SW
MetOp-A 4.2 21:37:47 59° NE 21:37:47 59° NE 21:42:45 10° N
Cosmos 1655 Rocket 3.9 21:34:02 10° N 21:40:18 86° W 21:42:01 51° S
ARGOS 3.9 21:43:06 40° NE 21:43:06 40° NE 21:47:18 10° N
Cosmos 1656 Rocket 4.4 21:39:04 10° NNW 21:43:30 37° NE 21:43:30 37° NE
Cosmos 2279 Rocket 3.8 21:43:54 70° ESE 21:44:16 72° E 21:50:28 10° NNE
Sich 1 4.4 21:45:10 10° N 21:47:40 32° N 21:47:40 32° N
SL-24 R/B - RUBIN 2 4.4 21:49:21 10° NW 21:56:07 83° SW 21:56:38 76° S
Cosmos 2266 Rocket 4.3 21:52:14 10° N 21:57:44 53° NE 21:57:44 53° NE
Cosmos 2026 Rocket 4.4 21:55:30 10° NNW 22:01:25 56° W 22:03:21 40° SW
Cosmos 1428 Rocket 4.5 21:59:50 10° NNW 22:06:07 77° W 22:06:38 71° SW
H-2A R/B 3.4 22:08:56 39° NNW 22:08:56 39° NNW 22:11:51 10° NNW
Cosmos 2369 Rocket 3.3 22:04:39 10° NW 22:09:46 36° WSW 22:10:43 34° SW
CZ-4C R/B 4.4 22:08:18 10° WNW 22:13:04 24° NNW 22:18:21 10° NE
Cosmos 1943 3.7 22:14:49 53° N 22:14:49 53° N 22:19:16 10° NNE
Cosmos 1943 Rocket 2.6 22:11:55 10° NNW 22:16:46 59° WNW 22:16:46 59° WNW
Terra 3.9 22:26:56 20° N 22:26:56 20° N 22:28:34 10° N
H-2A R/B 3.6 22:34:03 28° N 22:34:03 28° N 22:36:31 10° N
CENTAUR R/B 3.5 22:38:03 10° SW 22:46:45 41° NNE 22:51:24 10° NE
ATLAS 5 CENTAUR R/B 4.1 22:59:38 10° WNW 23:03:45 23° NNW 23:05:57 18° NNE
USA 215 4.0 23:05:01 44° NNE 23:05:58 46° NNW 23:12:07 10° W
Cosmos 1980 Rocket 4.4 23:37:35 10° NNW 23:39:46 20° N 23:39:46 20° N
ATLAS 3B R/B 4.4 23:39:24 10° NW 23:45:18 26° NNE 23:46:34 25° NNE
